RH
49 55 71 55 56 53 42 34 25 22 21 22 21 17 15 13 14 14 12 12 14 13 11 11 12 15 15 21 31 37 44 74 31 36 47 49 54 40 35 32 30 32 37 74 82 63 30 22 31
74 78 63 64 56 35 24 24 26 21 19 18 20 16 13 14 13 11 10 10 10 12 10 10 10 16 16 23 40 69 99 100 100 100 100 100 100 100 100 84 64 35 20 16 30 29 22 22 24
77 70 57 43 30 25 23 39 27 21 19 18 15 13 12 9 8 8 8 8 9 11 11 10 11 11 16 18 49 67 100 100 100 100 100 99 84 87 96 100 97 89 68 48 22 14 13 15 31
75 60 39 19 19 18 31 36 24 21 18 18 13 9 7 7 7 6 6 8 8 11 13 27 20 38 36 35 100 100 97 100 100 97 85 71 63 78 81 72 80 92 97 96 76 39 25 20 23
51 32 22 16 18 20 35 31 22 16 18 15 12 10 7 7 6 6 7 7 9 8 13 34 51 88 97 100 100 68 78 72 100 79 89 81 69 75 96 94 82 80 84 87 86 74 61 48 31
29 22 19 17 16 20 26 34 21 22 18 12 13 10 8 11 10 8 9 11 30 51 31 86 100 100 100 89 88 98 84 95 98 87 83 76 95 70 71 73 78 88 88 87 81 80 60 38 30
33 30 19 17 17 26 33 22 25 18 12 14 24 33 21 26 11 13 90 66 63 53 100 100 100 100 99 100 100 99 88 66 95 100 100 100 94 72 64 60 58 66 91 100 94 83 89 77 68
30 27 21 18 19 30 28 27 25 14 20 21 70 89 54 26 18 100 100 99 100 100 100 100 100 100 100 100 98 100 100 100 100 100 100 100 94 92 71 71 73 57 64 88 94 67 78 67 74
31 25 19 23 22 34 32 27 30 20 44 41 100 100 65 27 64 100 100 100 100 100 100 100 100 100 91 100 100 100 100 100 100 100 100 100 100 93 98 95 66 64 56 68 65 49 48 51 50
37 28 24 25 25 36 33 41 23 21 48 46 100 100 70 58 96 100 100 100 100 100 100 100 100 93 100 100 100 100 100 100 100 100 100 100 100 100 100 82 65 48 47 44 42 40 41 39 38
33 29 30 30 28 38 42 54 20 23 64 67 100 100 83 61 84 100 100 100 100 100 100 100 100 100 100 100 100 100 100 100 100 100 100 100 100 100 100 81 62 47 41 34 39 26 29 28 31
38 37 43 34 28 32 40 70 23 21 79 80 100 100 97 55 81 100 100 100 100 100 100 100 99 100 100 100 100 100 100 100 99 100 100 100 100 100 100 70 49 90 65 40 39 36 31 28 32
44 58 52 37 34 28 46 50 37 22 79 100 96 100 100 96 49 82 100 92 100 100 100 98 90 100 100 100 100 100 100 100 100 100 100 93 98 96 95 78 72 62 59 67 60 48 38 35 48
58 56 60 40 34 26 51 49 64 30 25 78 100 100 100 72 77 50 80 100 77 99 98 98 96 100 100 100 100 100 100 100 100 100 100 100 100 100 100 100 100 100 98 80 58 64 51 52 68
61 65 70 37 31 28 38 61 60 51 23 22 64 83 94 77 76 63 66 92 99 84 81 86 89 100 98 100 96 100 100 100 100 100 100 99 94 98 100 100 99 98 98 99 99 95 94 89 90
51 81 82 44 34 33 28 33 66 70 26 20 26 72 96 70 69 56 46 50 89 98 93 68 80 85 100 100 100 100 99 100 100 100 100 100 100 99 99 99 100 100 100 96 80 83 92 100 84
55 87 86 55 44 37 29 28 59 84 31 24 24 41 63 58 48 47 45 31 33 76 84 82 59 57 76 100 100 100 100 100 100 100 100 97 99 100 100 100 100 100 99 100 100 100 100 100 92
55 99 93 78 52 41 30 27 78 93 43 25 25 38 86 86 66 55 43 31 35 38 50 64 82 63 80 100 100 100 100 96 97 100 97 66 85 100 100 100 100 100 100 100 100 100 100 100 98
100 100 100 84 58 38 33 26 57 79 46 26 21 39 55 93 100 72 52 44 45 55 51 54 61 82 75 97 100 100 100 100 100 100 100 100 100 99 100 100 100 100 99 77 86 92 100 99 98
90 94 100 90 60 44 36 30 45 52 30 31 25 29 46 55 63 55 55 54 39 51 51 67 72 83 93 100 100 100 100 100 100 100 100 100 100 100 100 100 100 100 97 100 100 100 100 100 100
100 99 100 94 66 48 38 33 44 52 34 45 28 24 45 57 59 64 57 58 47 52 68 62 62 74 78 93 100 100 100 100 100 100 100 100 100 100 100 100 100 88 100 100 100 100 100 100 100
98 88 100 87 86 62 45 36 30 63 44 39 34 26 32 56 50 80 69 69 60 40 50 67 68 53 50 76 75 85 82 79 86 73 81 82 100 100 100 98 93 89 98 100 100 100 100 100 100
100 68 100 96 94 84 50 35 29 63 50 37 37 27 28 44 54 69 65 83 98 78 70 64 66 61 51 40 37 40 45 51 55 74 84 92 100 92 90 95 100 92 100 97 100 96 92 90 93
84 66 86 99 99 99 52 37 32 37 87 54 37 29 28 34 52 54 61 78 98 86 76 82 75 62 56 45 52 44 49 75 65 72 82 89 86 88 95 100 100 100 99 96 91 79 72 67 64
100 100 91 100 85 100 78 42 34 32 90 59 36 33 30 28 42 56 48 52 70 90 83 59 67 82 90 91 98 100 95 85 80 85 83 71 82 88 93 87 80 76 70 66 76 72 70 63 63
65 52 100 100 74 95 98 50 34 35 58 70 54 34 31 35 35 41 62 71 63 71 86 80 64 65 82 100 90 61 58 49 51 63 68 65 60 58 57 60 63 64 95 100 83 63 61 50 52
59 82 100 100 94 81 97 59 41 36 57 62 77 44 35 35 37 34 33 57 59 84 77 100 100 96 60 59 62 76 63 52 52 55 58 67 80 76 68 81 90 89 72 56 55 50 30 29 30
61 62 79 94 100 97 100 79 51 39 41 47 85 72 51 45 38 32 34 36 44 59 65 91 90 90 95 80 70 72 70 64 65 68 75 99 77 85 70 66 87 82 74 70 49 54 57 55 59
86 85 97 99 91 100 94 80 65 45 36 52 73 88 65 49 43 39 32 31 35 50 60 63 76 83 81 77 77 98 100 100 100 100 100 100 96 99 98 100 100 100 100 100 92 99 75 91 98
95 82 74 79 97 100 87 100 72 62 39 39 64 84 80 54 50 42 40 30 27 31 60 81 88 85 69 72 99 100 100 100 100 100 100 100 100 90 98 100 100 100 100 100 85 100 100 100 100
Wind_Speed
56 54 57 62 62 66 71 72 69 66 67 66 67 71 71 69 73 75 71 63 64 63 63 62 57 57 54 59 58 62 62 64 63 62 63 65 66 75 80 80 83 87 86 84 84 84 84 85 81
54 56 59 60 66 69 69 66 62 62 61 63 65 69 68 66 68 67 64 59 58 60 60 60 54 49 55 54 59 48 38 35 31 37 40 48 49 55 59 66 74 78 83 84 86 87 86 85 84
57 59 62 65 64 64 62 58 58 57 62 67 67 68 65 61 59 57 57 54 56 55 54 53 47 49 51 55 55 50 33 26 23 27 29 31 41 49 55 62 62 60 63 73 81 85 86 86 82
58 62 61 59 54 53 54 57 56 58 61 63 66 61 54 50 49 47 46 42 47 48 46 40 40 32 35 39 37 35 35 25 22 24 27 33 34 37 42 51 55 53 51 57 60 70 79 80 82
53 48 48 48 44 49 55 56 53 57 58 58 68 62 53 43 38 36 37 35 38 41 34 37 33 34 34 33 36 30 21 29 29 31 32 27 35 34 28 38 48 52 51 54 56 59 63 67 74
37 42 44 45 47 48 50 51 53 56 57 60 65 57 42 29 29 27 26 26 27 27 26 29 30 33 32 19 14 38 34 34 33 38 41 40 42 41 45 41 37 42 43 43 50 54 55 56 61
36 45 40 43 45 47 46 46 50 53 51 52 50 47 33 21 25 20 19 25 31 31 37 37 36 33 27 27 25 27 35 37 35 44 46 43 46 48 46 47 42 35 31 34 41 44 45 48 51
37 40 41 43 45 43 39 39 52 46 40 44 35 34 28 20 22 28 30 32 38 52 51 52 50 41 41 34 33 35 31 34 36 45 44 45 46 44 40 38 35 39 35 34 38 42 43 48 45
40 40 36 43 40 38 36 37 52 44 37 29 30 29 23 21 31 39 38 45 55 57 57 55 55 54 49 45 51 45 37 49 47 43 46 39 36 42 40 40 40 37 37 35 38 45 44 42 43
37 41 39 43 38 37 35 37 44 44 37 28 26 23 23 25 35 45 39 54 62 58 58 61 53 51 48 49 48 45 41 51 55 45 41 45 43 40 41 43 44 48 46 37 33 38 40 35 34
33 36 38 39 38 33 32 37 38 40 35 28 28 28 30 31 37 48 46 58 64 62 60 61 51 53 47 51 61 56 55 67 54 47 42 44 44 48 45 43 43 46 43 39 36 42 39 41 41
31 37 41 39 41 33 30 36 38 37 30 28 30 29 30 30 40 49 48 60 64 64 59 59 59 57 57 56 66 68 64 68 54 53 54 49 41 42 41 47 52 44 44 44 46 43 50 50 48
33 37 40 38 40 36 30 32 39 34 27 24 25 37 33 28 35 46 54 58 63 56 64 61 61 60 63 66 62 57 73 81 63 58 63 59 48 49 41 44 47 51 49 49 48 46 52 52 53
32 37 40 37 39 39 28 31 39 39 26 30 27 30 41 41 37 43 58 61 67 63 61 63 63 62 62 63 67 61 67 66 68 67 58 53 46 47 48 48 50 53 51 52 51 50 51 55 57
34 38 38 38 37 41 31 29 33 41 37 26 21 35 34 29 32 40 57 63 61 58 63 68 67 64 61 62 64 54 63 50 43 56 71 67 62 56 57 60 61 59 55 51 54 54 57 55 54
33 36 39 38 36 39 34 32 33 41 39 34 24 22 31 33 36 39 45 62 72 62 62 69 71 73 70 72 68 65 56 50 56 63 68 66 68 71 65 63 61 61 59 59 61 59 58 56 61
32 36 36 34 37 37 39 35 31 37 41 36 28 25 29 30 25 32 42 42 59 68 60 65 74 75 78 71 75 72 69 63 61 60 65 65 59 63 67 70 69 66 64 62 60 61 60 61 64
34 36 33 35 38 39 39 34 30 35 42 36 27 26 29 30 28 24 20 19 43 61 64 64 67 82 83 82 82 77 73 72 70 69 71 72 69 65 64 63 68 69 60 64 60 62 63 63 66
31 31 33 32 35 33 37 30 31 33 40 37 30 22 26 35 40 35 27 16 22 39 54 57 68 77 83 87 82 81 82 78 76 74 72 72 68 75 73 69 61 61 64 71 72 72 68 68 70
32 32 31 31 33 33 32 39 32 32 35 37 33 25 23 27 35 28 19 16 16 28 41 56 60 75 82 82 82 81 81 81 77 81 78 78 77 76 73 72 74 67 68 70 70 71 71 71 76
34 34 33 35 33 34 31 38 31 33 33 37 34 28 20 22 23 22 21 19 16 26 27 35 51 74 76 86 80 79 75 78 77 79 80 83 77 85 79 72 70 75 75 75 75 75 76 71 62
36 34 36 39 35 37 31 39 34 32 35 35 36 31 22 20 21 13 16 11 14 21 27 28 33 46 61 78 75 79 77 83 74 77 83 87 75 78 81 81 78 75 72 62 59 62 63 58 56
42 37 37 41 41 36 34 32 35 30 34 33 34 30 22 20 20 13 15 15 12 11 16 22 24 32 34 41 47 50 54 62 57 54 56 59 58 66 66 58 49 57 54 59 54 55 54 51 52
45 43 43 43 41 41 35 31 34 29 33 34 31 27 24 17 20 16 17 17 15 14 15 22 23 25 27 34 31 35 37 35 36 38 40 41 44 44 42 43 41 44 49 51 52 53 53 57 61
41 43 42 40 41 44 37 31 34 30 30 35 29 26 24 21 15 16 18 15 20 20 19 19 22 22 20 19 18 20 23 25 27 27 31 32 32 34 38 41 43 46 48 48 50 50 53 58 61
50 48 41 43 48 45 39 32 25 26 30 34 29 26 25 28 24 17 21 23 24 24 27 27 21 23 24 25 28 28 28 28 29 30 32 36 39 40 41 39 40 41 39 44 56 53 51 53 53
50 43 50 50 44 46 38 29 28 31 30 30 31 29 27 25 25 20 14 20 22 22 22 21 24 29 25 27 26 27 30 30 32 33 31 28 29 31 34 34 35 39 43 43 46 51 54 54 58
54 54 52 52 45 43 40 34 33 29 28 29 29 28 28 27 26 21 16 16 16 22 24 23 26 26 29 31 30 29 25 24 25 26 27 28 31 30 30 34 42 45 51 51 56 61 67 68 67
61 58 54 52 48 43 42 38 32 25 28 29 29 27 26 27 28 27 22 14 14 19 23 24 26 24 25 26 25 23 23 23 20 20 24 29 22 24 24 31 38 57 54 54 61 65 65 68 70
66 62 60 55 53 44 43 40 36 33 32 29 31 29 26 23 25 27 28 20 16 13 21 25 26 30 29 29 28 29 28 26 24 25 24 28 29 36 36 40 44 53 59 66 74 65 70 72 77
Wind_Direction
279 279 280 285 286 287 290 291 291 291 287 285 282 278 275 275 272 272 272 267 263 259 256 253 248 248 244 239 237 238 241 245 252 254 250 253 256 255 256 256 257 252 254 255 257 261 263 263 265
283 286 289 289 289 291 292 291 290 291 290 284 281 279 279 276 273 272 272 267 261 254 251 248 238 236 236 227 230 228 233 235 250 255 251 253 258 256 258 260 258 257 255 255 257 260 262 263 264
283 286 291 292 291 289 293 293 292 292 287 284 283 282 278 276 271 266 264 261 255 249 247 246 238 231 233 227 222 224 206 229 246 249 268 272 266 268 264 257 258 258 261 257 257 257 260 262 264
285 288 293 293 291 295 293 296 294 291 286 290 293 286 286 282 274 265 257 249 247 244 240 241 230 227 231 227 208 201 202 218 259 267 286 284 290 279 266 264 261 266 265 265 266 268 264 264 263
294 297 291 298 301 298 296 296 295 290 293 302 297 300 293 283 265 250 243 239 243 243 227 212 203 203 203 208 199 211 221 239 254 275 288 288 293 274 273 269 266 265 266 267 269 270 271 268 267
293 300 302 302 305 299 298 299 299 302 304 302 298 297 293 285 264 239 220 214 215 207 190 193 181 193 174 198 215 217 231 239 271 282 283 282 282 281 275 286 277 267 261 261 263 263 263 266 269
303 302 309 310 305 297 301 302 305 305 308 302 296 293 304 289 243 202 189 198 192 188 163 162 163 165 184 210 206 216 220 246 264 264 273 274 279 279 280 282 285 272 271 269 268 265 266 266 271
303 305 313 319 307 303 306 310 318 320 321 319 281 285 302 245 196 170 170 174 164 160 160 161 169 180 197 210 216 221 234 243 251 254 266 271 273 273 278 279 278 278 274 275 269 270 271 272 278
298 309 315 332 325 310 310 318 325 322 317 325 262 274 281 210 184 170 173 172 164 171 170 171 175 180 183 176 197 202 250 258 249 248 258 257 256 266 266 269 274 276 280 279 284 288 285 290 292
297 303 320 334 326 314 313 329 329 317 314 318 248 261 246 213 192 179 178 177 173 178 177 177 184 186 183 181 199 198 223 228 232 240 249 260 257 262 263 262 272 278 277 283 291 297 294 296 294
309 314 311 330 331 313 319 329 331 318 299 303 247 250 250 229 201 194 184 182 181 184 185 188 193 192 186 189 193 207 213 207 220 223 247 254 261 257 260 271 277 277 280 286 289 294 295 299 308
307 317 320 332 341 316 321 330 325 330 289 295 242 243 250 230 210 204 188 192 188 192 196 200 199 194 186 181 200 207 210 213 225 225 235 247 250 248 257 270 278 280 283 290 294 293 297 300 302
311 321 327 336 335 328 318 326 330 339 286 277 261 243 251 243 227 217 206 198 199 202 202 203 205 200 194 196 206 209 213 218 215 231 237 236 240 252 263 265 274 277 281 286 290 294 299 299 300
308 318 321 329 337 341 322 328 333 335 322 274 256 264 255 264 246 233 223 204 206 210 210 207 206 201 200 194 203 208 206 215 222 225 236 234 241 249 253 264 266 271 274 277 283 288 292 294 296
310 311 314 325 334 344 314 325 333 338 331 307 287 265 259 258 255 243 229 224 213 212 217 215 205 205 206 196 206 209 211 212 229 240 234 244 246 252 260 262 267 268 275 278 282 286 285 288 289
304 308 313 323 329 337 325 313 335 339 333 327 305 281 266 260 262 249 234 235 221 216 215 219 218 217 212 208 207 217 210 224 232 238 236 242 246 252 260 261 265 271 276 278 282 283 285 284 289
299 303 315 324 327 331 332 307 331 338 332 332 311 291 283 275 259 252 235 240 235 225 224 215 221 221 219 218 214 222 219 226 233 245 243 244 251 255 260 263 266 273 275 277 281 283 284 288 289
288 295 306 318 319 329 337 314 333 336 330 330 317 296 284 279 284 267 285 249 222 223 223 227 223 220 219 222 220 227 226 231 236 243 243 248 250 256 262 266 268 272 272 273 277 280 282 285 286
293 293 303 318 323 326 336 326 323 333 330 330 331 311 287 278 281 281 275 287 217 214 219 221 220 219 225 226 225 230 233 234 238 240 244 246 252 253 258 265 269 273 275 278 275 278 279 281 284
288 286 294 311 319 320 327 333 318 319 325 330 339 322 310 294 281 289 282 286 250 210 209 215 217 217 222 225 228 231 236 238 244 245 247 247 252 255 258 263 267 267 271 270 274 274 275 278 280
289 282 291 302 314 315 324 330 312 314 323 330 339 332 316 297 285 284 281 286 272 236 209 206 211 214 218 222 228 234 237 241 247 250 251 252 255 256 260 264 267 270 270 271 272 273 275 278 280
284 285 288 295 305 311 326 324 319 312 317 326 337 340 327 301 297 270 253 246 245 228 233 226 218 219 221 222 228 234 238 242 246 251 252 255 258 259 260 263 265 266 268 270 272 276 277 277 278
276 280 282 289 297 307 316 319 327 307 312 323 336 343 334 315 312 256 230 213 228 226 220 228 228 235 231 231 233 236 241 242 248 249 251 253 256 256 257 262 263 264 264 267 271 274 277 280 282
269 273 277 284 291 296 309 317 317 310 311 319 328 347 349 330 312 276 228 217 216 231 224 211 221 231 240 231 228 235 236 238 241 244 248 253 256 262 266 268 269 270 272 272 276 279 284 286 288
266 274 276 280 285 292 301 309 312 312 305 309 321 337 349 352 325 300 267 239 235 236 243 229 223 228 229 232 235 238 242 248 249 253 262 264 269 271 273 272 276 276 280 284 284 286 287 286 286
267 273 272 269 284 289 295 306 300 306 295 301 313 324 338 357 347 316 285 270 250 255 262 243 238 236 227 236 242 247 251 256 258 264 271 275 275 275 273 274 277 277 281 284 287 289 292 291 288
266 268 264 273 279 280 287 296 298 314 289 291 310 318 331 346 346 332 293 257 262 255 248 237 241 241 241 250 253 267 269 269 269 270 274 270 268 270 276 278 282 280 286 286 287 291 292 295 300
265 265 271 273 271 272 280 286 291 308 293 282 300 313 323 325 335 336 328 306 266 251 250 243 239 241 246 255 263 261 259 259 264 264 262 267 268 271 275 287 292 294 292 291 293 298 299 301 303
261 266 268 267 267 268 271 278 283 293 296 278 286 299 309 315 326 331 340 322 290 257 251 251 249 249 244 246 247 251 245 241 249 271 276 266 272 270 286 285 284 285 282 288 294 296 297 299 297
257 260 264 269 271 264 270 270 275 278 295 273 272 283 296 305 314 322 321 329 330 280 243 248 256 259 251 241 238 239 230 233 239 252 257 256 260 273 275 274 266 270 273 279 286 289 291 293 292